Weather History for Portland Troutdale, OR

Change the Weather History Date:

Saturday, November 2, 2013

  Actual Average Record
Temperature  
Mean Temperature 52 °F 49 °F  
Max Temperature 58 °F 57 °F 68 °F (1959)
Min Temperature 45 °F 41 °F 28 °F (1973)
Degree Days  
Heating Degree Days 13 16  
Month to date heating degree days 25 32  
Cooling Degree Days 0 0  
Month to date cooling degree days 0 0  
Moisture  
Dew Point 46 °F    
Average Humidity 72    
Maximum Humidity 93    
Minimum Humidity 51    
Precipitation  
Precipitation 0.56 in 0.21 in 2.15 in (1984)
Month to date precipitation 0.90 0.42  
Year to date precipitation 23.43 32.94  
Snow  
Snow 0.00 in - - ()
Snow Depth 0.00 in    
Sea Level Pressure  
Sea Level Pressure 29.89 in    
Wind  
Wind Speed 10 mph (SSW)    
Max Wind Speed 25 mph    
Max Gust Speed 32 mph    
Visibility 8 miles    
Events Rain    
T = Trace of Precipitation, MM = Missing Value Source: NWS Daily Summary

Daily Weather History Graph

Daily Weather History Graph

Search for Another Location

Airport:

Trip Planner

Search our weather history database for the weather conditions in past years. The results will help you decide how hot, cold, wet, or windy it might be!

Date:

Astronomy

Nov. 02, 2013 Rise Set
Actual Time 7:51 AM PDT 5:54 PM PDT
Civil Twilight 7:20 AM PDT 6:25 PM PDT
Nautical Twilight 6:44 AM PDT 7:00 PM PDT
Astronomical Twilight 6:10 AM PDT 7:35 PM PDT
Moon 6:52 AM PDT (11/2) 5:30 PM PDT (11/2)
Length of Visible Light 11h 05m
Length of Day
10h 03m
Waning Crescent, 1% of the Moon is Illuminated
Nov 2
Waning Crescent
Nov 3
New
Nov 9
First Quarter
Nov 17
Full
Nov 25
Last Quarter

Hourly Weather History & Observations

Time (PDT) Temp. Windchill Dew Point Humidity Pressure Visibility Wind Dir Wind Speed Gust Speed Precip Events Conditions
12:37 AM 53.6 °F - 51.8 °F 94% 29.90 in 2.5 mi East 3.5 mph - 0.12 in Rain Rain
12:53 AM 53.1 °F - 52.0 °F 96% 29.89 in 2.5 mi ESE 5.8 mph - 0.18 in Rain Rain
1:16 AM 53.6 °F - 51.8 °F 94% 29.86 in 3.0 mi East 9.2 mph - 0.11 in Rain Light Rain
1:26 AM 53.6 °F - 51.8 °F 94% 29.86 in 4.0 mi East 8.1 mph - 0.13 in Rain Light Rain
1:53 AM 53.1 °F - 51.1 °F 93% 29.84 in 10.0 mi East 5.8 mph - 0.14 in   Overcast
2:10 AM 53.6 °F - 51.8 °F 94% 29.83 in 7.0 mi ESE 5.8 mph - 0.02 in Rain Rain
2:53 AM 53.1 °F - 51.1 °F 93% 29.82 in 8.0 mi ESE 4.6 mph - 0.07 in Rain Light Rain
3:38 AM 53.6 °F - 51.8 °F 94% 29.78 in 3.0 mi East 6.9 mph - 0.07 in Rain Rain
3:45 AM 53.6 °F - 51.8 °F 94% 29.79 in 3.0 mi SSE 3.5 mph - 0.10 in Rain Rain
3:53 AM 54.0 °F - 51.1 °F 90% 29.79 in 5.0 mi SW 6.9 mph - 0.10 in Rain Light Rain
4:03 AM 53.6 °F - 50.0 °F 88% 29.77 in 6.0 mi South 8.1 mph - 0.02 in Rain Light Rain
4:16 AM 53.6 °F - 50.0 °F 88% 29.77 in 6.0 mi SSW 5.8 mph - 0.04 in Rain Light Rain
4:53 AM 54.0 °F - 50.0 °F 86% 29.78 in 4.0 mi SW 9.2 mph 16.1 mph 0.08 in Rain Rain
5:02 AM 53.6 °F - 50.0 °F 88% 29.78 in 4.0 mi SW 11.5 mph - 0.03 in Rain Light Rain
5:53 AM 54.0 °F - 48.9 °F 83% 29.74 in 10.0 mi South 12.7 mph 23.0 mph 0.06 in Rain Light Rain
6:53 AM 55.0 °F - 50.0 °F 83% 29.74 in 10.0 mi SSW 15.0 mph 27.6 mph 0.00 in Rain Light Rain
7:53 AM 54.0 °F - 48.9 °F 83% 29.77 in 10.0 mi SW 13.8 mph 28.8 mph 0.01 in   Mostly Cloudy
8:53 AM 53.1 °F - 46.0 °F 77% 29.82 in 10.0 mi SW 12.7 mph - N/A   Scattered Clouds
9:53 AM 52.0 °F - 46.0 °F 80% 29.87 in 10.0 mi SW 15.0 mph 20.7 mph 0.00 in   Overcast
10:53 AM 52.0 °F - 46.0 °F 80% 29.91 in 5.0 mi WSW 12.7 mph - 0.02 in Rain Light Rain
11:53 AM 54.0 °F - 43.0 °F 66% 29.94 in 10.0 mi SW 17.3 mph 26.5 mph 0.00 in   Overcast
12:53 PM 55.0 °F - 41.0 °F 59% 29.95 in 10.0 mi SW 18.4 mph 24.2 mph N/A   Overcast
1:53 PM 55.9 °F - 41.0 °F 57% 29.95 in 10.0 mi West 18.4 mph 31.1 mph 0.02 in   Mostly Cloudy
2:53 PM 55.0 °F - 37.9 °F 53% 29.96 in 10.0 mi WNW 10.4 mph 17.3 mph N/A   Overcast
3:53 PM 53.1 °F - 45.0 °F 74% 29.99 in 10.0 mi WSW 6.9 mph - 0.04 in   Mostly Cloudy
4:53 PM 53.1 °F - 37.9 °F 57% 30.00 in 10.0 mi West 12.7 mph 20.7 mph N/A   Mostly Cloudy
5:53 PM 48.0 °F - 41.0 °F 77% 30.01 in 10.0 mi WSW 6.9 mph - 0.01 in   Mostly Cloudy
6:18 PM 48.2 °F - 39.2 °F 71% 30.01 in 10.0 mi WSW 4.6 mph - N/A   Mostly Cloudy
6:53 PM 48.9 °F - 39.9 °F 71% 30.02 in 10.0 mi WSW 5.8 mph - N/A   Mostly Cloudy
7:53 PM 50.0 °F - 37.9 °F 63% 30.02 in 10.0 mi SW 9.2 mph - N/A   Overcast
8:53 PM 46.9 °F - 39.9 °F 77% 30.03 in 10.0 mi SW 8.1 mph - 0.01 in   Overcast
9:53 PM 46.0 °F 43.1 °F 39.9 °F 79% 30.05 in 10.0 mi WSW 5.8 mph - 0.00 in   Mostly Cloudy
10:53 PM 46.9 °F - 39.9 °F 77% 30.05 in 10.0 mi WSW 8.1 mph - N/A   Overcast
11:53 PM 46.0 °F 43.9 °F 39.9 °F 79% 30.05 in 8.0 mi SW 4.6 mph - 0.02 in Rain Light Rain